TimeEST,TemperatureF,Dew PointF,Humidity,Sea Level PressureIn,VisibilityMPH,Wind Direction,Wind SpeedMPH,Gust SpeedMPH,PrecipitationIn,Events,Conditions,WindDirDegrees,DateUTC
12:15 AM,25.2,21.6,86,30.32,10.0,West,12.7,-,N/A,,Clear,260,2012-12-31 05:15:00
12:35 AM,25.7,21.9,86,30.33,10.0,WSW,12.7,-,N/A,,Clear,250,2012-12-31 05:35:00
12:55 AM,26.2,21.7,83,30.31,10.0,WSW,10.4,-,N/A,,Clear,250,2012-12-31 05:55:00
1:15 AM,24.8,21.2,86,30.30,10.0,West,10.4,-,N/A,,Clear,260,2012-12-31 06:15:00
1:35 AM,25.0,21.4,86,30.31,10.0,West,9.2,-,N/A,,Clear,260,2012-12-31 06:35:00
1:55 AM,24.8,21.0,86,30.30,10.0,West,8.1,-,N/A,,Clear,270,2012-12-31 06:55:00
2:15 AM,24.6,21.0,86,30.30,10.0,West,9.2,-,N/A,,Clear,270,2012-12-31 07:15:00
2:35 AM,24.3,20.8,87,30.30,10.0,West,9.2,-,N/A,,Clear,270,2012-12-31 07:35:00
2:55 AM,24.1,20.8,87,30.30,10.0,West,9.2,-,N/A,,Clear,270,2012-12-31 07:55:00
3:15 AM,24.1,21.2,89,30.30,10.0,West,8.1,-,N/A,,Clear,270,2012-12-31 08:15:00
3:35 AM,24.3,21.0,87,30.30,10.0,West,8.1,-,N/A,,Clear,270,2012-12-31 08:35:00
3:55 AM,24.4,21.6,89,30.30,10.0,West,5.8,-,N/A,,Clear,270,2012-12-31 08:55:00
4:15 AM,24.8,21.6,87,30.29,10.0,West,5.8,-,N/A,,Clear,270,2012-12-31 09:15:00
4:35 AM,24.6,21.0,86,30.29,10.0,WSW,5.8,-,N/A,,Clear,250,2012-12-31 09:35:00
4:55 AM,24.6,21.4,87,30.28,10.0,West,5.8,-,N/A,,Clear,270,2012-12-31 09:55:00
5:15 AM,23.7,21.2,90,30.28,10.0,WSW,6.9,-,N/A,,Clear,240,2012-12-31 10:15:00
5:35 AM,23.7,21.6,91,30.27,10.0,West,8.1,-,N/A,,Clear,260,2012-12-31 10:35:00
5:55 AM,25.7,22.5,88,30.27,10.0,WSW,4.6,-,N/A,,Clear,250,2012-12-31 10:55:00
6:15 AM,25.7,22.5,88,30.27,10.0,West,6.9,-,N/A,,Clear,270,2012-12-31 11:15:00
6:35 AM,25.7,22.5,88,30.28,10.0,West,8.1,-,N/A,,Clear,260,2012-12-31 11:35:00
6:55 AM,26.6,23.0,86,30.28,10.0,WSW,8.1,-,N/A,,Clear,250,2012-12-31 11:55:00
7:15 AM,26.4,21.9,83,30.28,10.0,West,6.9,-,N/A,,Clear,270,2012-12-31 12:15:00
7:55 AM,26.6,21.6,81,30.29,10.0,WSW,6.9,-,N/A,,Clear,250,2012-12-31 12:55:00
8:15 AM,26.6,21.2,80,30.29,10.0,West,6.9,-,N/A,,Clear,260,2012-12-31 13:15:00
8:35 AM,27.9,21.6,77,30.29,10.0,West,8.1,-,N/A,,Clear,270,2012-12-31 13:35:00
8:55 AM,29.3,21.9,74,30.28,10.0,West,8.1,-,N/A,,Clear,270,2012-12-31 13:55:00
9:15 AM,30.2,22.3,72,30.28,10.0,West,9.2,-,N/A,,Clear,270,2012-12-31 14:15:00
9:35 AM,30.9,22.3,70,30.28,10.0,West,10.4,-,N/A,,Clear,270,2012-12-31 14:35:00
9:55 AM,31.8,23.0,70,30.27,10.0,West,8.1,-,N/A,,Clear,270,2012-12-31 14:55:00
10:15 AM,32.2,22.6,68,30.27,10.0,WSW,10.4,-,N/A,,Scattered Clouds,250,2012-12-31 15:15:00
10:35 AM,32.9,22.1,65,30.28,10.0,WSW,12.7,-,N/A,,Mostly Cloudy,250,2012-12-31 15:35:00
10:55 AM,33.4,22.3,64,30.28,10.0,WSW,15.0,19.6,N/A,,Scattered Clouds,250,2012-12-31 15:55:00
11:15 AM,33.8,21.9,62,30.27,10.0,WSW,11.5,-,N/A,,Clear,240,2012-12-31 16:15:00
11:35 AM,37.0,22.3,55,30.27,10.0,WSW,13.8,-,N/A,,Clear,250,2012-12-31 16:35:00
11:55 AM,38.5,22.5,53,30.24,10.0,WSW,13.8,-,N/A,,Clear,250,2012-12-31 16:55:00
12:15 PM,39.0,22.1,51,30.22,10.0,WSW,15.0,-,N/A,,Clear,250,2012-12-31 17:15:00
12:35 PM,39.9,21.6,48,30.21,10.0,WSW,12.7,-,N/A,,Clear,250,2012-12-31 17:35:00
12:55 PM,40.6,21.0,46,30.20,10.0,WSW,13.8,-,N/A,,Scattered Clouds,250,2012-12-31 17:55:00
1:15 PM,41.2,18.1,40,30.17,10.0,WSW,16.1,24.2,N/A,,Scattered Clouds,250,2012-12-31 18:15:00
1:35 PM,42.3,17.4,37,30.18,10.0,WSW,16.1,23.0,N/A,,Scattered Clouds,250,2012-12-31 18:35:00
1:55 PM,41.4,17.1,38,30.16,10.0,West,11.5,20.7,N/A,,Scattered Clouds,260,2012-12-31 18:55:00
2:15 PM,41.5,17.8,38,30.18,10.0,WSW,13.8,20.7,N/A,,Mostly Cloudy,240,2012-12-31 19:15:00
2:35 PM,41.5,15.8,35,30.17,10.0,WSW,19.6,26.5,N/A,,Overcast,250,2012-12-31 19:35:00
2:55 PM,41.9,15.4,34,30.17,10.0,WSW,15.0,21.9,N/A,,Overcast,250,2012-12-31 19:55:00
3:15 PM,41.2,14.7,34,30.17,10.0,WSW,19.6,26.5,N/A,,Overcast,250,2012-12-31 20:15:00
3:35 PM,41.0,14.9,35,30.17,10.0,WSW,16.1,26.5,N/A,,Overcast,250,2012-12-31 20:35:00
3:55 PM,40.3,14.5,35,30.16,10.0,WSW,13.8,21.9,N/A,,Overcast,250,2012-12-31 20:55:00
4:15 PM,40.1,16.9,39,30.16,10.0,West,15.0,20.7,N/A,,Overcast,260,2012-12-31 21:15:00
4:35 PM,39.6,16.9,40,30.14,10.0,WSW,15.0,-,N/A,,Overcast,250,2012-12-31 21:35:00
4:55 PM,39.2,17.4,41,30.15,10.0,West,11.5,-,N/A,,Overcast,260,2012-12-31 21:55:00
5:15 PM,38.7,17.4,42,30.17,10.0,West,10.4,-,N/A,,Overcast,260,2012-12-31 22:15:00
5:35 PM,38.7,16.0,40,30.16,10.0,WSW,12.7,17.3,N/A,,Overcast,250,2012-12-31 22:35:00
5:55 PM,38.7,14.9,38,30.15,10.0,West,13.8,20.7,N/A,,Overcast,260,2012-12-31 22:55:00
6:15 PM,38.7,15.6,39,30.16,10.0,WSW,15.0,20.7,N/A,,Overcast,250,2012-12-31 23:15:00
6:35 PM,38.3,18.5,45,30.15,10.0,WSW,11.5,-,N/A,,Overcast,250,2012-12-31 23:35:00
6:55 PM,37.9,19.2,47,30.14,10.0,West,11.5,16.1,N/A,,Overcast,260,2012-12-31 23:55:00
7:15 PM,37.6,20.3,50,30.13,10.0,WSW,11.5,16.1,N/A,,Overcast,250,2013-01-01 00:15:00
7:35 PM,37.8,19.6,48,30.12,10.0,WSW,12.7,17.3,N/A,,Overcast,250,2013-01-01 00:35:00
7:55 PM,37.8,20.5,50,30.13,10.0,WSW,9.2,-,N/A,,Overcast,250,2013-01-01 00:55:00
8:15 PM,37.0,21.4,53,30.13,10.0,West,10.4,-,N/A,,Overcast,260,2013-01-01 01:15:00
8:35 PM,36.7,21.4,54,30.12,10.0,West,10.4,-,N/A,,Mostly Cloudy,260,2013-01-01 01:35:00
8:55 PM,36.9,21.6,54,30.11,10.0,WSW,9.2,-,N/A,,Mostly Cloudy,250,2013-01-01 01:55:00
9:15 PM,36.9,21.7,54,30.11,10.0,WSW,9.2,-,N/A,,Scattered Clouds,250,2013-01-01 02:15:00
9:35 PM,36.7,22.1,56,30.09,10.0,WSW,10.4,-,N/A,,Scattered Clouds,250,2013-01-01 02:35:00
10:15 PM,36.9,22.5,56,30.10,10.0,WSW,8.1,-,N/A,,Overcast,240,2013-01-01 03:15:00
10:35 PM,37.0,21.9,54,30.09,10.0,WSW,10.4,-,N/A,,Mostly Cloudy,250,2013-01-01 03:35:00
10:55 PM,36.7,22.3,56,30.10,10.0,WSW,11.5,-,N/A,,Overcast,240,2013-01-01 03:55:00
11:15 PM,36.7,22.8,57,30.10,10.0,WSW,9.2,-,N/A,,Overcast,250,2013-01-01 04:15:00
11:35 PM,36.5,23.5,59,30.09,10.0,WSW,8.1,-,N/A,,Overcast,250,2013-01-01 04:35:00